This is the latest recevied weather packets stored in our database for station/object K0VSC-1. If no packets are shown the sender has not sent any weather packets the latest 1 day(s).
| Time | Temp. | Humidity | Pressure | Rain* | Wind** | Luminosity | Snow |
|---|---|---|---|---|---|---|---|
| 1778027285 | 4.44° C | 51% | 1012.9 hPa | 0 mm | 2.68 m/s, 340° | 42 W/m² | - |
| 1778026985 | 4.44° C | 52% | 1012.9 hPa | 0 mm | 2.68 m/s, 299° | 32 W/m² | - |
| 1778026685 | 4.44° C | 51% | 1012.9 hPa | 0 mm | 2.24 m/s, 323° | 28 W/m² | - |
| 1778026385 | 5° C | 51% | 1012.8 hPa | 0 mm | 2.68 m/s, 323° | 47 W/m² | - |
| 1778026085 | 5° C | 50% | 1012.8 hPa | 0 mm | 2.24 m/s, 306° | 63 W/m² | - |
| 1778025785 | 5° C | 51% | 1012.8 hPa | 0 mm | 1.79 m/s, 329° | 67 W/m² | - |
| 1778025485 | 5° C | 51% | 1012.7 hPa | 0 mm | 2.24 m/s, 300° | 40 W/m² | - |
| 1778025185 | 5.56° C | 51% | 1012.7 hPa | 0 mm | 2.24 m/s, 297° | 113 W/m² | - |
| 1778024885 | 5.56° C | 50% | 1012.6 hPa | 0 mm | 2.68 m/s, 297° | 123 W/m² | - |
| 1778024585 | 5° C | 51% | 1012.5 hPa | 0 mm | 3.58 m/s, 317° | 116 W/m² | - |
| 1778024285 | 5° C | 51% | 1012.4 hPa | 0 mm | 3.58 m/s, 316° | 127 W/m² | - |
| 1778023985 | 5° C | 50% | 1012.5 hPa | 0 mm | 2.68 m/s, 304° | 109 W/m² | - |
| 1778023685 | 5.56° C | 51% | 1012.3 hPa | 0 mm | 2.68 m/s, 337° | 128 W/m² | - |
| 1778023385 | 5.56° C | 51% | 1012.3 hPa | 0 mm | 2.68 m/s, 300° | 128 W/m² | - |
| 1778023085 | 5.56° C | 51% | 1012.4 hPa | 0 mm | 2.24 m/s, 330° | 97 W/m² | - |
| 1778022785 | 5.56° C | 50% | 1012.3 hPa | 0 mm | 2.68 m/s, 323° | 113 W/m² | - |
| 1778022485 | 5.56° C | 49% | 1012.2 hPa | 0 mm | 3.58 m/s, 323° | 127 W/m² | - |
| 1778022185 | 5.56° C | 49% | 1012.2 hPa | 0 mm | 3.13 m/s, 327° | 121 W/m² | - |
| 1778021885 | 6.11° C | 48% | 1012.2 hPa | 0 mm | 3.58 m/s, 304° | 163 W/m² | - |
| 1778021585 | 6.11° C | 48% | 1012.1 hPa | 0 mm | 3.13 m/s, 317° | 181 W/m² | - |
| 1778021285 | 6.11° C | 48% | 1012 hPa | 0 mm | 3.13 m/s, 305° | 146 W/m² | - |
| 1778020985 | 6.67° C | 47% | 1012 hPa | 0 mm | 2.24 m/s, 355° | 179 W/m² | - |
| 1778020685 | 6.67° C | 48% | 1011.9 hPa | 0 mm | 1.79 m/s, 329° | 178 W/m² | - |
| 1778020385 | 6.11° C | 47% | 1011.9 hPa | 0 mm | 2.68 m/s, 298° | 227 W/m² | - |
| 1778020085 | 6.11° C | 48% | 1011.9 hPa | 0 mm | 2.24 m/s, 318° | 214 W/m² | - |
* Rain latest hour (hover to see other rain measurements)
** Current wind speed in m/s (hover to see current wind gust speed)